TIANWANG 1A (TW-1A)
1 40928U 15051D   19262.74289025  .00002536  00000-0  62932-4 0  9994
2 40928  97.1390 291.9764 0012719  92.6538 358.9316 15.41196238223502
LAPAN A2
1 40931U 15052B   19260.05938163  .00000679  00000-0  53744-5 0  9993
2 40931   5.9940 132.0905 0013665 353.3940   6.6007 14.76613531214647
LQSAT
1 40958U 15057A   19262.75807977 -.00000001 +00000-0 +75782-5 0  9990
2 40958 097.8908 329.4032 0016951 305.1837 054.7783 14.73088879212511
CHUBUSAT 2
1 41338U 16012B   19262.44467808 +.00000282 +00000-0 +15213-4 0  9998
2 41338 031.0028 275.3045 0013788 301.8850 058.0444 15.00179622196850
CHUBUSAT 3
1 41339U 16012C   19262.66949166  .00000288  00000-0  15589-4 0  9997
2 41339  31.0111 271.8501 0013777 312.9417  47.0061 15.00353212196887
OUFTI-1
1 41458U 16025C   19262.88045243 +.00001087 +00000-0 +58743-4 0  9997
2 41458 098.1004 354.4630 0166803 044.1085 317.3305 15.06021062186591
E-STAR-2
1 41459U 16025D   19262.85294708  .00001095  00000-0  59575-4 0  9990
2 41459  98.1018 354.0421 0167826  45.7775 315.7077 15.05652035186564
AAUSAT 4
1 41460U 16025E   19262.84331555  .00001412  00000-0  73901-4 0  9995
2 41460  98.0956 355.5094 0157801  37.3332 323.8722 15.07612079186705
NUSAT 1
1 41557U 16033B   19262.88288664 +.00000830 +00000-0 +33703-4 0  9996
2 41557 097.4158 349.8400 0012915 334.9983 025.0629 15.27374403184310
BEESAT 4
1 41619U 16040W   19262.86518047 +.00000937 +00000-0 +42377-4 0  9997
2 41619 097.3588 323.3179 0012739 060.8965 299.3546 15.23299836168042
PRATHAM
1 41783U 16059A   19262.75133398 +.00000012 +00000-0 +11590-4 0  9996
2 41783 098.0584 320.2349 0034931 091.5625 268.9579 14.63009184159153
ALSAT 1N
1 41789U 16059G   19262.86555410  .00000035  00000-0  15657-4 0  9990
2 41789  98.0610 322.5451 0029577  80.2529 280.1997 14.64261636159283
NAYIF 1
1 42017U 17008BX  19262.76915308 +.00000969 +00000-0 +40827-4 0  9998
2 42017 097.3951 328.8746 0005934 185.8009 174.3162 15.25714222144116
MAX VALIER SAT
1 42778U 17036P   19262.68531140 +.00000562 +00000-0 +27493-4 0  9995
2 42778 097.3455 318.2635 0010691 255.5787 104.4263 15.22134101124385
